Wind_Speed
20 20 19 20 20 20 21 21 20 20 21 22 22 22 20 20 20 20 20 20 19 19 18 18 18 18 17 17 16 15 15 15 16 15 14 14 13 12 12 11 11 12 12 12
20 19 19 21 21 21 21 21 21 21 21 22 22 23 22 21 21 21 20 20 20 20 19 19 19 19 19 18 18 17 16 16 16 16 15 14 13 13 13 13 13 13 12 13
19 20 21 21 21 21 21 21 21 21 21 23 24 23 22 22 21 21 20 20 21 21 21 21 20 20 20 19 19 18 17 17 17 16 15 15 14 14 15 14 13 13 13 14
19 20 21 21 21 21 21 20 21 22 22 23 24 25 22 22 21 21 20 20 21 21 21 21 21 21 20 20 19 18 18 18 18 17 16 16 15 15 15 14 14 14 14 14
19 20 21 21 21 22 21 21 22 22 23 23 24 25 22 22 21 20 20 20 21 21 22 22 21 20 20 19 19 19 19 18 18 18 16 17 17 16 15 14 14 14 14 14
19 20 20 21 22 23 22 22 23 24 24 25 24 25 23 22 21 20 20 21 21 21 21 21 20 20 20 19 19 19 19 19 18 18 17 17 17 16 15 15 15 15 15 15
19 20 20 21 22 23 23 23 24 25 25 25 24 25 25 23 22 22 21 21 21 20 20 20 20 20 20 19 19 19 20 19 18 18 18 18 18 17 17 16 16 16 16 16
19 20 20 21 21 22 24 24 25 27 27 26 25 26 25 24 24 23 23 22 21 20 20 20 21 21 20 20 19 19 20 20 19 19 18 19 20 19 18 18 17 17 17 16
19 20 20 21 22 23 24 25 26 28 28 28 27 27 26 25 24 24 24 23 23 22 22 21 21 21 20 19 19 19 20 20 20 19 19 20 21 20 19 19 18 18 18 18
20 20 21 22 23 24 24 25 26 27 28 28 27 26 25 25 25 25 24 24 23 22 22 22 22 21 20 20 20 20 20 20 21 21 21 21 21 21 20 20 19 19 19 19
22 22 21 22 24 24 24 25 26 27 28 28 27 26 24 23 24 24 24 24 24 23 22 22 21 21 21 21 21 21 20 20 21 22 22 22 21 21 20 20 20 20 19 19
23 24 23 23 23 24 25 26 26 27 28 28 28 26 24 24 24 25 25 24 24 24 23 23 22 22 22 22 21 21 21 21 22 22 22 22 22 22 21 21 21 20 20 20
24 25 24 23 23 24 25 26 26 27 28 29 29 28 26 26 25 26 26 25 25 24 24 23 23 23 23 23 22 22 22 23 23 23 23 23 23 23 22 22 22 21 21 21
25 24 24 23 24 24 25 26 26 27 29 29 29 28 27 27 27 27 26 25 25 26 26 24 23 23 25 25 24 22 22 23 23 22 23 23 22 23 23 22 21 21 21 20
25 25 25 25 25 25 25 25 26 27 28 29 28 28 27 27 27 26 26 26 26 26 26 25 24 24 25 25 24 23 22 22 22 21 22 22 22 22 22 21 21 21 20 19
26 26 26 26 26 25 25 25 26 27 28 29 29 28 27 28 27 26 26 25 25 26 27 25 26 26 25 23 22 22 21 21 20 20 20 21 21 21 21 20 20 20 18 18
25 27 26 26 26 26 26 25 26 27 28 28 28 27 28 28 27 27 26 25 26 26 25 26 26 25 24 23 22 22 21 20 20 20 21 20 20 20 20 19 19 18 17 18
25 26 26 26 26 27 25 23 24 26 27 27 27 27 28 28 27 27 26 25 25 24 24 24 23 22 23 22 22 22 22 21 20 20 19 19 19 18 18 18 17 17 17 18
25 25 26 26 26 26 24 24 25 25 25 26 26 26 26 27 27 26 25 25 24 24 23 23 23 21 22 21 21 22 20 20 19 19 18 18 18 18 17 17 17 17 18 18
24 24 25 25 26 25 25 25 25 25 25 24 25 25 26 25 24 23 23 23 23 23 22 22 22 22 21 21 21 21 20 20 19 19 18 18 18 18 18 17 17 18 18 18
23 23 23 24 24 24 24 24 24 24 23 23 23 23 23 23 22 22 22 22 23 23 22 22 22 22 21 21 21 21 20 19 19 19 19 18 18 19 19 19 19 19 20 20
23 24 24 24 24 23 22 22 22 22 23 23 21 20 20 20 21 22 22 22 22 22 21 21 21 22 21 21 20 20 20 19 19 19 19 19 19 19 20 20 20 20 20 20
23 24 24 24 23 22 21 20 20 21 22 22 21 19 18 18 18 19 20 21 21 22 22 22 22 22 22 21 21 21 21 21 21 20 20 20 20 20 21 21 21 21 21 20
22 22 23 23 21 21 21 20 20 20 20 20 21 21 20 19 19 19 19 20 21 21 22 22 23 23 23 23 22 22 22 22 22 22 21 21 21 21 21 21 21 22 22 22
21 21 22 22 22 21 20 20 20 20 20 20 19 18 17 18 18 18 19 20 21 21 21 22 22 22 22 22 22 22 22 23 23 23 23 22 22 22 22 22 22 22 23 23
20 21 22 22 21 21 20 20 20 20 20 21 21 20 19 19 19 19 18 19 19 20 20 21 21 21 22 22 22 22 22 23 24 24 23 23 23 23 23 22 22 22 23 22
Wind_Direction
246 246 248 248 248 248 249 250 251 252 254 255 258 261 263 267 271 273 275 278 280 286 286 287 289 293 294 297 297 297 299 298 297 298 296 295 295 291 292 299 300 296 294 292
246 245 245 246 248 250 251 251 252 254 255 256 258 260 263 267 270 271 273 275 279 281 281 283 286 289 291 293 293 290 290 291 292 293 292 290 289 287 288 294 296 294 290 287
244 243 244 247 251 253 254 255 255 255 255 259 261 263 262 264 266 269 274 279 281 281 281 281 285 288 289 288 289 288 287 288 287 287 283 282 286 284 286 289 292 292 289 288
242 244 246 249 252 254 254 256 256 256 257 258 263 267 264 264 267 272 275 278 281 282 281 282 285 286 287 287 286 286 283 285 283 285 282 279 282 283 287 286 288 290 288 286
243 245 248 250 252 255 255 255 257 260 261 262 264 267 267 265 268 271 273 276 280 279 278 279 281 283 283 283 283 284 281 282 283 284 282 281 282 283 284 285 286 287 286 283
247 248 250 251 252 254 255 255 258 262 264 266 267 268 269 270 271 271 273 275 277 277 276 277 279 280 282 281 281 284 282 281 281 283 283 279 279 280 281 282 284 285 283 282
249 251 251 252 253 254 256 258 261 263 265 269 269 268 271 272 271 271 273 275 277 276 275 276 278 280 283 283 282 282 280 279 279 282 282 278 280 278 277 277 279 281 281 280
252 252 252 253 255 257 258 261 264 267 268 270 270 269 272 272 271 272 274 275 277 277 277 277 278 279 281 282 281 280 277 274 276 278 278 277 280 278 277 277 277 277 278 277
256 254 255 257 258 258 260 261 265 268 270 271 271 273 273 271 271 273 276 276 276 278 278 277 278 280 279 278 278 276 275 274 273 273 276 278 281 279 278 276 276 275 276 276
262 260 258 260 259 259 261 262 265 267 271 271 273 276 275 273 274 275 278 278 276 276 277 275 276 279 278 278 277 274 273 273 272 272 274 277 278 277 276 274 274 274 274 274
265 266 263 261 260 260 261 262 264 268 270 273 275 274 276 277 275 275 277 278 277 274 275 275 276 278 278 278 279 278 275 272 273 273 274 275 275 275 273 275 277 275 273 271
267 268 267 265 263 262 262 263 265 268 269 270 272 274 274 276 277 277 277 275 274 273 272 273 273 274 274 275 275 276 275 273 275 276 274 274 274 274 274 274 275 274 271 269
269 270 270 267 266 265 264 264 265 267 268 270 271 274 273 273 276 276 276 273 271 271 271 272 273 273 272 272 272 274 274 275 276 276 274 274 273 272 272 274 273 272 271 269
267 268 270 271 270 269 268 266 266 267 269 270 271 272 272 273 274 274 273 271 270 270 272 271 272 272 270 270 271 273 275 274 275 276 275 274 271 271 272 273 271 270 269 266
267 267 268 270 271 271 271 269 269 270 270 271 272 272 271 272 273 271 270 270 270 270 271 270 273 275 273 271 271 274 276 275 274 273 274 274 271 271 272 270 269 269 267 264
268 268 270 270 272 273 271 270 271 272 273 273 273 271 272 273 273 271 269 268 269 270 270 271 274 275 276 274 272 273 274 273 273 272 271 272 270 270 270 266 267 267 265 266
267 269 270 272 272 273 272 273 274 274 274 275 274 272 272 272 272 270 268 269 268 269 269 271 272 273 274 273 273 272 272 274 271 269 269 268 270 271 267 265 267 265 268 269
268 270 271 273 272 272 275 273 274 276 275 275 273 273 273 272 271 271 271 269 267 268 268 268 268 271 274 274 272 271 273 274 273 271 271 270 269 265 263 264 264 265 268 271
269 271 271 272 274 273 272 274 274 275 275 274 273 273 272 271 270 271 271 269 265 264 264 266 268 271 272 271 271 269 268 269 270 271 269 271 266 260 259 261 265 265 267 269
270 271 272 273 274 274 273 273 274 274 274 273 274 273 271 271 270 269 267 266 263 262 263 265 268 271 269 267 269 267 266 267 267 268 267 268 264 261 263 263 263 265 267 269
272 273 274 274 275 275 276 276 274 273 273 273 274 273 271 269 269 266 265 265 265 264 265 266 267 268 267 267 268 266 266 264 265 264 265 263 262 263 264 265 265 266 268 269
273 273 273 275 277 278 279 274 272 271 271 273 272 271 270 267 268 267 266 266 266 265 264 265 266 266 267 267 267 266 265 264 264 264 264 263 262 264 265 266 268 269 271 272
272 274 273 275 278 278 278 276 272 271 271 272 270 269 269 268 267 268 269 268 267 266 264 265 265 265 265 264 263 265 264 265 266 265 264 263 263 263 266 268 269 270 270 271
272 274 273 272 275 276 274 273 274 275 273 272 268 267 269 271 272 269 270 269 269 269 267 266 265 264 263 263 264 263 263 265 265 265 265 264 265 267 268 269 269 269 271 271
271 272 271 270 271 272 272 272 274 275 274 273 272 271 274 273 272 270 269 270 271 270 270 269 268 264 261 263 264 263 264 264 266 266 267 266 268 270 271 270 270 270 272 271
272 270 270 272 272 273 273 273 273 274 275 274 273 274 274 273 273 275 275 272 270 270 270 267 266 263 261 262 262 262 263 264 266 268 267 269 271 272 273 272 271 271 272 274
Height
5844 5846 5847 5848 5849 5850 5851 5852 5853 5854 5854 5855 5855 5856 5858 5858 5858 5858 5858 5858 5858 5858 5858 5857 5857 5856 5856 5855 5854 5853 5853 5852 5851 5850 5849 5849 5848 5848 5847 5846 5846 5845 5845 5844
5841 5842 5843 5844 5845 5846 5847 5848 5849 5850 5850 5850 5850 5851 5853 5853 5853 5854 5854 5854 5854 5854 5854 5853 5853 5852 5852 5851 5850 5849 5849 5848 5847 5847 5846 5846 5845 5844 5843 5843 5842 5842 5841 5841
5836 5838 5839 5840 5841 5842 5843 5844 5845 5846 5846 5845 5846 5847 5848 5849 5849 5849 5849 5850 5849 5849 5849 5849 5849 5848 5847 5846 5846 5845 5844 5844 5843 5842 5841 5841 5841 5840 5839 5839 5838 5838 5837 5837
5832 5833 5834 5836 5837 5838 5839 5840 5840 5840 5841 5841 5842 5842 5844 5844 5844 5845 5845 5845 5844 5844 5844 5844 5844 5843 5842 5842 5841 5840 5840 5840 5839 5838 5837 5837 5837 5837 5836 5836 5835 5834 5833 5833
5828 5829 5830 5832 5833 5833 5835 5835 5835 5836 5836 5837 5837 5837 5839 5839 5840 5841 5840 5840 5839 5839 5838 5838 5838 5838 5838 5837 5836 5835 5835 5835 5834 5834 5833 5832 5832 5831 5831 5831 5831 5830 5830 5829
5824 5825 5826 5828 5828 5829 5830 5831 5831 5831 5831 5832 5833 5833 5833 5835 5835 5836 5835 5835 5835 5834 5833 5833 5833 5833 5832 5831 5831 5830 5830 5830 5829 5829 5828 5828 5828 5827 5828 5827 5827 5826 5826 5826
5820 5821 5822 5823 5824 5825 5826 5827 5827 5826 5826 5827 5828 5827 5829 5829 5829 5830 5830 5830 5829 5829 5828 5828 5828 5827 5827 5826 5826 5825 5825 5825 5825 5824 5824 5824 5824 5823 5823 5823 5823 5822 5822 5822
5816 5818 5818 5819 5820 5820 5821 5822 5822 5822 5821 5822 5822 5821 5824 5823 5823 5824 5824 5825 5824 5824 5823 5823 5822 5822 5821 5820 5820 5820 5820 5820 5820 5820 5819 5819 5819 5819 5819 5819 5818 5818 5818 5817
5811 5813 5814 5814 5814 5815 5815 5816 5817 5816 5815 5815 5816 5816 5817 5817 5817 5818 5818 5819 5819 5818 5818 5817 5817 5816 5815 5814 5814 5814 5815 5815 5815 5814 5814 5814 5813 5813 5813 5813 5813 5813 5813 5812
5806 5808 5809 5809 5809 5809 5810 5811 5811 5810 5809 5809 5810 5810 5811 5811 5812 5812 5812 5812 5812 5812 5812 5811 5811 5810 5809 5809 5809 5808 5808 5809 5809 5808 5808 5808 5808 5807 5807 5807 5807 5807 5807 5807
5801 5802 5803 5803 5803 5803 5804 5805 5804 5803 5803 5803 5802 5806 5805 5805 5805 5805 5805 5805 5806 5806 5806 5805 5805 5804 5804 5803 5803 5803 5802 5802 5802 5802 5802 5802 5802 5801 5801 5801 5801 5801 5801 5801
5795 5795 5796 5797 5797 5797 5798 5798 5798 5798 5797 5796 5796 5800 5799 5799 5799 5798 5798 5799 5799 5799 5799 5799 5799 5799 5798 5798 5797 5797 5796 5796 5796 5795 5795 5795 5795 5795 5795 5795 5795 5796 5795 5795
5789 5789 5790 5790 5792 5792 5791 5791 5791 5791 5791 5790 5790 5793 5792 5792 5792 5792 5792 5792 5792 5793 5793 5793 5792 5792 5792 5792 5791 5791 5790 5790 5789 5789 5789 5788 5788 5788 5789 5789 5789 5789 5789 5789
5782 5783 5784 5785 5785 5784 5784 5784 5784 5784 5783 5783 5784 5785 5785 5785 5785 5785 5785 5785 5785 5786 5786 5785 5785 5785 5785 5785 5785 5784 5784 5783 5783 5782 5782 5782 5782 5782 5782 5782 5782 5783 5783 5783
5776 5776 5777 5777 5777 5777 5777 5778 5777 5777 5777 5776 5777 5777 5778 5777 5777 5778 5778 5778 5778 5779 5779 5778 5778 5778 5778 5778 5778 5777 5777 5776 5776 5776 5776 5775 5775 5775 5775 5776 5776 5776 5776 5777
5769 5769 5770 5771 5771 5770 5771 5771 5771 5770 5770 5769 5769 5770 5770 5770 5770 5770 5770 5771 5771 5772 5772 5771 5771 5771 5771 5771 5771 5771 5770 5770 5769 5769 5769 5769 5769 5769 5769 5769 5769 5770 5770 5771
5763 5763 5763 5764 5763 5763 5764 5765 5764 5763 5762 5762 5762 5763 5763 5763 5763 5763 5763 5763 5764 5764 5764 5765 5765 5764 5765 5765 5765 5764 5764 5763 5763 5763 5763 5762 5763 5763 5763 5763 5764 5764 5765 5765
5756 5756 5756 5756 5757 5756 5760 5758 5757 5756 5756 5756 5755 5755 5755 5755 5755 5755 5755 5756 5757 5757 5757 5758 5758 5758 5758 5758 5758 5758 5757 5757 5757 5757 5756 5756 5757 5757 5757 5758 5758 5758 5759 5759
5750 5750 5749 5749 5749 5749 5751 5751 5750 5749 5749 5749 5748 5748 5747 5747 5748 5748 5748 5749 5749 5750 5751 5751 5751 5752 5751 5751 5751 5751 5751 5751 5751 5751 5751 5751 5751 5752 5752 5753 5753 5753 5754 5754
5743 5743 5743 5742 5742 5743 5745 5744 5743 5743 5742 5742 5741 5741 5740 5740 5741 5742 5742 5741 5742 5743 5744 5745 5745 5745 5745 5745 5745 5744 5744 5745 5745 5746 5746 5746 5746 5746 5747 5747 5747 5747 5748 5748
5737 5736 5736 5735 5735 5736 5737 5736 5736 5737 5737 5735 5734 5734 5733 5733 5735 5735 5735 5735 5735 5736 5737 5737 5738 5739 5739 5739 5739 5738 5738 5739 5739 5740 5740 5740 5741 5741 5741 5741 5741 5741 5741 5741
5731 5730 5730 5729 5729 5732 5730 5729 5730 5729 5728 5728 5728 5727 5727 5728 5728 5728 5728 5728 5729 5729 5730 5730 5731 5731 5732 5732 5732 5732 5732 5733 5733 5734 5734 5734 5735 5735 5735 5735 5735 5734 5734 5734
5724 5724 5724 5724 5726 5724 5723 5723 5722 5722 5722 5721 5721 5721 5721 5722 5722 5722 5722 5722 5722 5723 5723 5723 5724 5724 5725 5725 5726 5726 5726 5727 5727 5727 5728 5728 5729 5728 5728 5728 5728 5728 5727 5727
5718 5717 5717 5717 5718 5717 5717 5716 5716 5715 5715 5715 5715 5715 5715 5715 5716 5716 5716 5716 5716 5716 5716 5717 5717 5717 5718 5718 5719 5720 5720 5720 5721 5721 5721 5721 5722 5722 5721 5721 5721 5721 5721 5720
5712 5711 5711 5711 5711 5711 5711 5711 5710 5710 5709 5709 5709 5709 5709 5710 5710 5710 5710 5710 5710 5710 5710 5710 5710 5711 5711 5712 5712 5713 5714 5714 5714 5714 5714 5715 5715 5715 5715 5714 5714 5714 5714 5713
5705 5705 5705 5705 5706 5705 5706 5705 5705 5704 5704 5704 5704 5704 5704 5704 5704 5704 5704 5704 5704 5703 5703 5703 5704 5705 5705 5706 5706 5707 5707 5707 5708 5708 5708 5708 5708 5708 5707 5707 5707 5706 5706 5706